Location: Spruce Knob
(38.6995°N, 79.5330°W)
Time: 21:41:30
(UTC-04:00)

Altair - Visible Passes

Search period start: 17 August 2022 00:00
Search period end: 27 August 2022 00:00
Orbit: 1502 x 1682 km, 47.2° (Epoch: 16 August)

Date Brightness Start Highest point End Pass type
(mag) Time Alt. Az. Time Alt. Az. Time Alt. Az.
17 Aug 7.3 00:35:01 10° WNW 00:44:18 84° N 00:44:18 84° N visible
17 Aug 9.0 02:40:29 10° WNW 02:42:16 16° WNW 02:42:16 16° WNW visible
17 Aug 8.1 22:04:14 10° WNW 22:13:39 52° N 22:21:51 13° ENE visible
18 Aug 7.3 00:09:47 10° WNW 00:19:20 81° NNE 00:19:49 79° ENE visible
18 Aug 8.9 02:15:10 10° WNW 02:17:47 20° W 02:17:47 20° W visible
18 Aug 8.1 21:38:54 10° WNW 21:48:21 51° N 21:57:26 10° ENE visible
18 Aug 7.4 23:44:33 10° WNW 23:54:08 77° NNE 23:55:25 68° E visible
19 Aug 8.7 01:49:51 10° WNW 01:53:23 24° W 01:53:23 24° W visible
19 Aug 8.2 21:13:35 10° WNW 21:23:03 51° N 21:32:10 10° ENE visible
19 Aug 7.5 23:19:19 10° WNW 23:28:55 74° NNE 23:31:03 57° E visible
20 Aug 8.5 01:24:33 10° WNW 01:29:02 29° W 01:29:02 29° W visible
20 Aug 8.2 20:48:13 10° WNW 20:57:44 51° N 21:06:54 10° ENE visible
20 Aug 7.5 22:54:04 10° WNW 23:03:42 70° NNE 23:06:46 47° E visible
21 Aug 8.3 00:59:16 10° WNW 01:04:45 35° W 01:04:45 35° W visible
21 Aug 8.2 20:22:52 10° WNW 20:32:26 52° N 20:41:38 10° ENE visible
21 Aug 7.6 22:28:49 10° WNW 22:38:27 67° NNE 22:42:31 38° E visible
22 Aug 8.1 00:33:59 10° WNW 00:40:29 43° W 00:40:29 43° W visible
22 Aug 7.7 22:03:34 10° WNW 22:13:12 65° NNE 22:18:18 30° E visible
23 Aug 7.8 00:08:44 10° WNW 00:16:18 52° WSW 00:16:18 52° WSW visible
23 Aug 7.8 21:38:17 10° WNW 21:47:56 62° NNE 21:54:08 24° E visible
23 Aug 7.5 23:43:28 10° WNW 23:52:07 61° WSW 23:52:07 61° WSW visible
24 Aug 7.8 21:13:00 10° WNW 21:22:41 60° NNE 21:30:01 18° E visible
24 Aug 7.4 23:18:13 10° WNW 23:27:41 67° SW 23:28:00 67° SSW visible
25 Aug 9.4 01:25:12 10° W 01:26:00 12° W 01:26:00 12° W visible
25 Aug 7.9 20:47:43 10° WNW 20:57:23 58° NNE 21:05:55 13° E visible
25 Aug 7.3 22:52:58 10° WNW 23:02:32 72° SW 23:03:55 64° S visible
26 Aug 9.2 00:59:34 10° W 01:01:55 16° W 01:01:55 16° W visible
26 Aug 8.0 20:22:26 10° WNW 20:32:07 57° NNE 20:41:24 10° E visible
26 Aug 7.4 22:27:43 10° WNW 22:37:22 77° SW 22:39:53 54° SE visible
